Home   Weather   Weiz   Past weeks

Flag for Austria Past Weather in Weiz, Styria, Austria — Yesterday and Last 2 Weeks

Now
28 °F

Partly sunny.


Feels Like: N/A
Forecast: 22 / 45 °F
Wind: N/A

Location: Graz-Thalerhof-Flughafen

Current Time: Dec 8, 2016 at 5:21:35 pm

Latest Report: Dec 8, 2016 at 4:00 pm


Visibility: 0 mi

Pressure: 30.57 "Hg

Humidity: 98%

Dew Point: 28 °F

Location of WeizLocation

Past Weather in Weiz — Graph

°F

Weiz Temperature Yesterday

Maximum temperature yesterday: 29 °F (at 4:00 pm)
Minimum temperature yesterday: 25 °F (at 8:00 pm)
Average temperature yesterday: 26 °F

High & Low Weather Summary for the Past Weeks

 TemperatureHumidityPressure
High54 °F (Dec 2, 1:00 pm)100% (Nov 23, 8:00 pm)30.75 "Hg (Nov 23, 8:00 pm)
Low18 °F (Nov 30, 5:00 am)32% (Nov 28, 3:00 pm)29.88 "Hg (Dec 2, 12:00 pm)
Average34 °F85%30.29 "Hg
* Reported Nov 23 4:00 pm — Dec 8 4:00 pm, Weiz, Weather by CustomWeather, © 2016

Note: Actual official high and low records may vary slightly from our data, if they occured in-between our weather recording intervals... More about our weather records

Advertising

Weiz Weather History for the Previous 24 Hours

Scroll right to see more
 ConditionsComfort  
Time TempWeatherWind HumidityBarometerVisibility
4:00 pm
Thu, Dec 8
28 °FPartly sunny.N/A98%30.57 "Hg0 mi
3:00 pm28 °FIcy mix. Scattered clouds.N/A98%30.59 "Hg1 mi
2:00 pm28 °FPartly sunny.N/A97%30.60 "Hg1 mi
1:00 pm28 °FPartly sunny.N/A97%30.62 "Hg1 mi
12:00 pm27 °FLow clouds.N/A96%30.64 "Hg1 mi
11:00 am25 °FLow clouds.N/A96%30.66 "Hg1 mi
10:00 am24 °FIcy mix. Partly sunny.N/A96%30.68 "Hg1 mi
9:00 am23 °FIcy mix. Ice fog.N/A96%30.68 "Hg1 mi
8:00 am23 °FIce fog.N/A97%30.68 "Hg0 mi
7:00 am23 °FIce fog.N/A97%30.68 "Hg0 mi
6:00 am24 °FIcy mix. Low clouds.N/A97%30.68 "Hg1 mi
5:00 am24 °FIcy mix. Low clouds.N/A98%30.69 "Hg0 mi
4:00 am23 °FIcy mix. Low clouds.N/A97%30.69 "Hg0 mi
3:00 am24 °FLow clouds.N/A97%30.71 "Hg0 mi
2:00 am25 °FLow clouds.N/A98%30.71 "Hg0 mi
1:00 am25 °FIce fog.N/A98%30.70 "Hg0 mi
12:00 am25 °FIce fog.N/A98%30.71 "Hg0 mi
8:00 pm
Wed, Dec 7
25 °FIcy mix. Passing clouds.N/A98%30.73 "Hg0 mi
7:00 pm26 °FPassing clouds.N/A97%30.73 "Hg1 mi
6:00 pm26 °FPassing clouds.N/A96%30.73 "Hg1 mi
5:00 pm29 °FPassing clouds.N/A94%30.71 "Hg3 mi
Weather by CustomWeather, © 2016

See weather overviewHow to use our weather pages